TEVEL2-6

Last updated on Thu Oct 30 2025 00:03:11 GMT+0000 (Coordinated Universal Time)

1 63215U 25052F 25302.20071757 .00022410 00000+0 90497-3 0 9992 2 63215 97.4116 194.3904 0002433 157.6812 202.4532 15.24778023 34799
UTC large
Height (km)
Speed (km/s)
/
Latitude / Longitude
Inclination (degrees)
Orbital Period (minutes)
Azimuth
Elevation
Range (km)
Doppler Factor

Next 0 passes for location: London (51.5072 / 0.1276)

Sorry there are no passes over London.